Regional Weather Roundup
Issued by NWS

Home | Current Version | Previous Version | Text Only | Print | Product List | Glossary On
Versions: 1 2 3 4 5 6 7 8 9 10 11 12 13 14 15 16 17 18 19 20 21 22 23 24 25 26 27 28 29 30 31 32 33 34 35 36 37 38 39 40 41 42 43 44 45 46 47 48 49 50
000
ASUS43 KLSX 242159
RWRMO

WEATHER SUMMARY FOR MISSOURI
NATIONAL WEATHER SERVICE SPRINGFIELD MO
500 PM CDT THU JUL 24 2014

NOTE: "FAIR" INDICATES FEW OR NO CLOUDS BELOW 12,000 FEET WITH NO
       SIGNIFICANT WEATHER AND/OR OBSTRUCTIONS TO VISIBILITY.
       CURRENT SKY AND/OR WEATHER CONDITIONS ARE NOT AVAILABLE FOR
       CHILLICOTHE AND FARMINGTON.

MOZ001>031-035>038-043-044-053-054-242300-
...NORTHERN AND WESTERN MISSOURI...

CITY           SKY/WX    TMP DP  RH WIND       PRES   REMARKS
KANSAS CTY INT MOSUNNY   82  60  47 S14       30.02F
KANSAS C DTWN  SUNNY     84  58  40 SE15      30.01F
LEE`S SUMMIT   SUNNY     81  59  47 S9        30.04F
ST JOSEPH      SUNNY     82  62  50 SE16      30.02F
CHILLICOTHE      N/A     80  58  46 VRB5      30.07F
KIRKSVILLE     PTSUNNY   78  58  49 SE6       30.12R

$$
MOZ066>068-077>081-088>096-101>105-242300-
...SOUTHWEST MISSOURI...

CITY           SKY/WX    TMP DP  RH WIND       PRES   REMARKS
SPRINGFIELD    SUNNY     83  54  36 E5        30.06F
JOPLIN         SUNNY     87  62  43 VRB6      30.03F

$$
MOZ032>034-039>042-045>050-055>058-069>072-242300-
...CENTRAL MISSOURI...

CITY           SKY/WX    TMP DP  RH WIND       PRES   REMARKS
COLUMBIA       MOSUNNY   81  56  42 E9        30.05F
JEFFERSON CITY MOSUNNY   81  55  40 SE7       30.02F
ROLLA          MOSUNNY   80  48  32 E6        30.05F
SEDALIA        SUNNY     83  55  38 E8        30.06F
OSAGE BEACH    MOSUNNY   82  55  39 NE6       30.04F

$$
MOZ051-052-059>065-242300-
...EAST CENTRAL MISSOURI...

CITY           SKY/WX    TMP DP  RH WIND       PRES   REMARKS
ST LOUIS INTL  MOSUNNY   81  53  37 VRB5      30.05F
SPIRIT OF STL  PTSUNNY   80  51  36 E5        30.04F
ST CHARLES     MOSUNNY   79  53  40 E8        30.05F

$$
MOZ072>076-082>087-097>100-106>115-242300-
...SOUTH CENTRAL AND SOUTHEAST MISSOURI...

CITY           SKY/WX    TMP DP  RH WIND       PRES   REMARKS
CAPE GIRARDEAU PTSUNNY   77  59  53 NE10      30.04F
FARMINGTON     SUNNY     79  55  44 NE9       30.08F
POPLAR BLUFF   SUNNY     81  55  40 NE9       30.04F
WEST PLAINS    SUNNY     81  56  42 NE7       30.08F

$$


USA.gov is the U.S. government's official web portal to all federal, state and local government web resources and services.